This is the latest recevied weather packets stored in our database for station/object N3EG. If no packets are shown the sender has not sent any weather packets the latest 10 day(s).
| Time | Temp. | Humidity | Pressure | Rain* | Wind** | Luminosity | Snow |
|---|---|---|---|---|---|---|---|
| 1788040802 | 20.56° C | 65% | 1019.6 hPa | 0 mm | - | - | - |
| 1788040503 | 20.56° C | 67% | 1019.5 hPa | 0 mm | - | - | - |
| 1788040203 | 20.56° C | 65% | 1019.5 hPa | 0 mm | - | - | - |
| 1788039916 | 20.56° C | 66% | 1019.5 hPa | 0 mm | - | - | - |
| 1788039603 | 21.11° C | 67% | 1019.4 hPa | 0 mm | - | - | - |
| 1788039303 | 20.56° C | 68% | 1019.4 hPa | 0 mm | - | - | - |
| 1788039002 | 20° C | 66% | 1019.4 hPa | 0 mm | - | - | - |
| 1788038703 | 20° C | 69% | 1019.4 hPa | 0 mm | - | - | - |
| 1788038403 | 20° C | 67% | 1019.5 hPa | 0 mm | - | - | - |
| 1788038102 | 20° C | 68% | 1019.5 hPa | 0 mm | - | - | - |
| 1788037803 | 20.56° C | 69% | 1019.3 hPa | 0 mm | - | - | - |
| 1788037503 | 20.56° C | 68% | 1019.3 hPa | 0 mm | - | - | - |
| 1788037202 | 20.56° C | 69% | 1019.3 hPa | 0 mm | - | - | - |
| 1788036903 | 20.56° C | 68% | 1019.2 hPa | 0 mm | - | - | - |
| 1788036603 | 20.56° C | 69% | 1019.2 hPa | 0 mm | - | - | - |
| 1788036303 | 20° C | 70% | 1019.2 hPa | 0 mm | - | - | - |
| 1788036003 | 19.44° C | 70% | 1019.3 hPa | 0 mm | - | - | - |
| 1788035702 | 19.44° C | 72% | 1019.4 hPa | 0 mm | - | - | - |
| 1788035403 | 19.44° C | 73% | 1019.4 hPa | 0 mm | - | - | - |
| 1788035103 | 19.44° C | 74% | 1019.4 hPa | 0 mm | - | - | - |
| 1788034802 | 19.44° C | 74% | 1019.4 hPa | 0 mm | - | - | - |
| 1788034513 | 19.44° C | 73% | 1019.2 hPa | 0 mm | - | - | - |
| 1788034203 | 19.44° C | 76% | 1019.3 hPa | 0 mm | - | - | - |
| 1788033902 | 18.89° C | 77% | 1019.3 hPa | 0 mm | - | - | - |
| 1788033603 | 18.89° C | 76% | 1019.3 hPa | 0 mm | - | - | - |
* Rain latest hour (hover to see other rain measurements)
** Current wind speed in m/s (hover to see current wind gust speed)